Theta_e
351 356 363 364 364 364 363 361 360 359 360 359 358 358 360 360 359 359 359 357 355 352 349 347 345 343 342 341 340 340 340 340 341 341 343 347 349 355 357 351 356 351 356
352 356 362 363 363 363 362 360 358 359 360 359 358 359 359 359 357 355 354 352 350 345 342 341 341 340 340 339 338 338 339 340 341 342 338 333 334 350 357 353 356 353 356
353 356 358 361 362 361 360 360 359 359 359 358 359 359 357 355 352 351 350 347 345 341 340 339 339 338 338 338 338 338 339 343 344 341 334 319 339 343 358 355 351 351 353
353 353 355 361 360 359 358 359 359 358 358 359 358 356 353 352 350 346 347 345 341 339 338 338 337 337 337 337 337 338 338 339 344 336 320 319 348 359 355 353 356 357 355
349 352 354 360 359 357 357 358 359 359 359 358 356 352 349 347 346 347 345 344 339 338 336 336 337 337 337 338 338 339 340 341 341 328 317 320 347 354 354 352 350 349 349
349 352 357 359 359 358 357 356 359 359 358 356 352 348 346 343 344 344 341 340 337 336 335 335 335 335 337 338 339 342 343 344 340 321 319 321 342 349 346 344 341 339 339
351 353 354 359 359 358 357 357 358 358 356 353 349 345 343 342 342 341 339 337 336 335 334 334 335 336 337 341 342 341 342 343 320 320 318 326 336 343 337 335 334 334 334
351 352 353 358 358 358 359 357 356 354 353 351 348 346 343 343 342 340 338 337 335 333 333 333 334 339 342 340 338 339 340 336 316 313 312 327 337 337 333 332 333 333 333
351 349 350 353 355 359 357 355 354 352 351 348 347 347 346 343 342 340 340 337 335 332 332 335 336 338 340 338 337 338 338 330 310 310 318 324 335 332 329 329 329 330 330
346 349 350 351 351 349 347 351 352 351 349 348 347 346 346 343 341 339 341 339 334 333 333 335 339 338 335 336 336 336 331 326 310 311 312 323 335 333 329 328 328 328 329
343 346 347 344 343 343 342 343 348 346 345 347 345 347 345 334 335 333 333 337 334 332 334 338 339 337 331 329 330 328 325 312 310 312 312 325 335 331 330 330 329 328 329
334 339 341 339 339 336 339 333 330 331 334 333 334 335 331 329 330 334 335 341 336 336 334 331 332 329 323 316 314 319 312 311 312 312 313 327 330 331 330 331 331 329 329
334 325 339 336 334 332 331 327 326 326 326 327 329 329 328 328 324 325 323 322 322 327 319 320 319 317 314 313 312 310 310 311 311 311 315 325 327 329 330 330 331 333 329
333 332 337 335 328 324 324 323 324 324 326 325 323 324 323 321 322 320 322 320 319 318 317 317 315 314 313 313 311 310 310 309 310 310 313 324 326 328 331 331 331 332 328
328 332 336 335 329 323 325 326 326 326 327 322 323 323 323 321 320 320 321 320 319 319 317 315 314 313 312 312 311 310 310 309 309 310 309 322 325 328 327 330 330 330 329
332 333 336 333 329 328 325 323 322 323 323 322 322 323 322 321 320 319 319 320 318 317 317 315 313 312 310 310 309 310 309 309 309 309 310 311 324 325 325 326 326 327 327
330 332 331 327 327 326 324 325 326 325 323 320 320 321 321 319 319 319 318 318 316 316 315 314 313 311 309 309 307 308 308 309 309 309 309 310 315 323 323 324 324 324 325
324 323 325 327 327 327 327 325 324 324 324 322 323 322 324 325 321 319 317 318 318 316 314 312 311 309 307 306 306 307 307 307 308 308 309 310 313 316 317 323 325 325 326
322 322 324 326 327 327 326 327 326 325 324 325 324 323 322 322 322 318 317 316 316 313 311 312 310 308 306 306 307 307 307 306 307 309 309 313 314 314 312 318 324 326 326
326 324 322 321 322 323 323 324 323 323 324 324 324 324 323 322 321 317 316 314 313 310 309 308 307 306 306 306 309 308 307 306 307 306 308 312 314 312 311 311 314 318 325
323 322 322 322 323 323 322 321 321 318 323 324 324 325 324 323 321 316 315 313 312 309 307 308 306 304 304 305 304 304 304 304 305 306 306 307 309 311 315 314 315 315 317
320 319 318 318 318 320 322 320 320 319 322 322 322 321 324 324 323 320 319 315 313 308 307 305 304 304 304 305 301 299 296 299 303 304 305 306 308 311 312 314 316 317 317
315 317 317 316 315 316 317 318 318 319 320 320 320 320 323 323 323 321 318 314 310 308 305 305 304 304 301 303 303 300 295 294 297 301 303 303 303 304 308 312 315 316 316
314 316 316 317 317 318 317 317 314 314 312 316 317 319 316 316 318 319 319 315 309 307 306 306 308 305 303 300 302 304 303 303 296 294 299 301 303 304 307 312 313 314 312
314 315 315 315 314 315 314 314 314 313 314 315 315 312 311 312 312 314 313 312 310 309 308 307 307 306 305 302 300 300 298 299 298 295 293 297 303 303 312 312 312 311 311
315 315 313 310 309 310 311 311 310 309 309 306 305 305 306 307 311 312 313 311 311 310 307 307 308 307 306 302 302 300 299 297 300 295 293 295 296 303 305 305 309 309 308
Wind_Speed
7 7 13 14 14 16 17 17 17 18 17 17 17 17 17 18 19 19 19 19 17 18 17 17 16 15 15 15 15 15 15 15 15 15 13 12 10 7 3 1 6 5 6
13 10 14 13 15 17 16 17 17 17 17 16 17 17 17 18 20 19 18 17 16 17 17 16 16 15 15 15 15 15 16 17 17 18 18 15 11 9 7 4 6 4 4
13 13 13 16 16 17 17 16 16 16 16 16 16 17 18 18 19 18 17 17 17 17 16 16 16 15 15 15 16 16 18 18 19 18 18 10 10 8 10 7 7 5 4
12 10 11 17 17 18 17 16 16 16 16 16 18 18 18 18 18 18 16 16 16 15 15 14 13 13 13 14 15 16 18 19 18 20 7 9 6 12 11 7 9 9 9
9 7 11 16 15 17 17 16 16 15 15 18 18 18 18 18 17 16 15 14 14 13 12 12 12 12 12 14 15 16 17 19 19 11 7 7 4 6 9 9 7 7 7
10 7 14 16 16 17 18 18 15 16 18 17 18 19 18 17 16 14 13 12 12 11 11 11 11 12 13 15 15 16 17 19 17 7 4 7 3 7 8 7 7 7 7
11 10 13 17 17 18 19 19 18 18 18 18 18 18 18 16 14 13 12 10 9 9 10 10 11 11 13 15 15 15 18 18 14 10 8 3 3 6 6 6 6 7 7
13 9 9 15 15 15 15 15 16 16 17 18 18 17 17 15 13 12 11 10 7 6 8 10 11 11 12 15 15 15 17 19 11 8 7 4 4 5 5 5 6 7 7
11 9 7 8 13 17 17 16 14 12 13 14 14 14 14 14 12 10 9 8 6 6 6 8 10 10 12 12 13 14 14 17 7 4 7 1 2 4 4 4 5 5 6
6 9 6 8 9 9 10 16 16 15 13 12 12 12 12 12 11 10 7 6 5 4 6 7 7 8 9 11 11 13 15 16 7 6 2 3 6 13 5 5 5 5 7
8 4 7 9 8 6 6 10 12 15 15 13 12 12 8 3 5 5 5 4 4 3 4 5 8 7 10 12 14 15 14 4 6 4 3 13 12 17 8 8 6 7 10
5 18 3 5 6 5 5 4 5 7 4 5 5 5 3 3 3 5 3 3 3 4 7 8 9 11 10 4 4 9 3 5 5 5 3 14 15 14 13 14 9 10 8
26 16 9 3 4 5 6 4 0 1 2 1 5 5 3 2 4 4 1 3 4 8 3 4 5 4 6 4 4 4 4 4 3 4 8 16 15 16 17 16 15 10 6
25 19 3 8 7 6 6 5 4 3 3 0 4 5 4 3 4 4 3 5 4 2 4 5 4 5 6 6 5 4 4 3 2 3 7 17 15 14 11 8 8 12 6
31 21 18 12 6 1 3 3 1 2 4 3 4 4 3 3 4 4 4 4 4 4 4 4 4 5 5 6 5 5 6 6 5 3 3 18 17 10 6 9 10 10 10
17 16 2 9 9 7 6 6 4 6 5 4 4 4 5 3 3 4 4 4 3 4 4 4 4 3 4 4 6 6 6 6 6 5 5 6 17 7 6 9 10 10 10
9 7 7 7 9 9 6 5 7 6 6 5 4 5 3 3 5 5 4 4 3 3 5 4 2 1 3 4 5 5 5 6 7 8 6 5 7 8 6 9 11 10 13
9 7 4 7 10 8 7 7 5 4 3 3 3 3 4 3 4 4 3 3 2 3 3 2 2 3 4 4 3 5 6 5 7 7 5 4 4 3 6 12 12 15 14
6 4 8 8 7 6 5 4 4 4 2 2 3 2 5 3 2 3 3 3 2 3 3 2 0 1 1 4 4 4 5 4 5 6 7 8 6 5 3 10 13 12 14
8 9 6 5 8 6 3 2 2 2 6 4 3 3 4 3 4 3 3 3 2 3 3 1 2 1 0 3 4 4 5 3 2 4 6 7 7 7 5 5 5 6 13
9 9 8 9 8 7 4 5 4 4 3 6 5 7 5 2 2 3 3 1 1 3 1 1 1 2 2 3 4 4 4 3 3 6 4 5 6 7 6 5 3 3 5
7 6 8 8 7 5 3 2 3 3 3 2 5 8 9 7 3 3 2 3 2 1 1 1 2 1 2 3 1 3 5 5 5 4 4 5 9 6 6 6 5 4 5
10 9 8 7 6 5 7 4 5 3 2 4 5 4 5 6 6 6 5 5 3 2 0 1 1 1 0 2 1 3 3 2 3 3 5 3 6 4 4 4 5 6 6
5 6 5 6 7 7 7 5 3 5 4 2 6 4 7 7 9 8 5 4 3 2 1 3 2 2 2 1 2 1 1 3 2 5 3 4 6 5 4 3 4 5 6
2 3 3 1 1 1 2 4 3 6 3 5 4 6 7 5 6 5 2 5 4 3 3 4 3 2 2 2 2 1 1 0 1 2 4 5 3 2 2 2 2 3 4
4 2 5 4 4 6 6 7 7 8 5 4 4 4 5 4 4 5 6 4 4 3 4 4 4 4 3 2 2 2 2 2 2 1 3 4 3 3 2 2 2 3 3
Wind_Direction
154 163 137 130 129 128 123 119 113 108 103 99 96 93 90 87 87 86 84 81 81 80 75 70 65 59 53 46 37 28 19 13 11 2 351 326 300 276 237 61 109 115 115
142 147 137 131 121 119 125 122 116 112 108 105 103 98 95 92 91 89 87 85 81 78 74 68 62 55 48 40 32 25 18 11 11 5 355 336 313 249 200 130 84 96 101
146 142 139 134 129 126 124 122 118 112 110 109 104 98 95 94 92 89 87 83 80 75 68 62 57 49 45 38 28 21 14 7 7 16 357 339 340 187 158 117 96 87 84
135 133 137 136 133 131 127 122 117 115 116 111 103 100 98 95 93 91 89 85 81 75 71 66 61 54 46 34 23 15 11 8 8 15 352 344 32 92 108 106 97 77 69
110 116 137 131 129 127 124 119 116 116 110 102 102 102 99 96 92 89 86 85 84 82 76 68 62 54 41 29 16 8 6 2 1 10 357 344 20 74 82 81 87 83 76
122 126 132 130 129 128 125 123 122 114 108 110 110 106 103 100 98 96 97 96 91 81 75 73 65 54 41 33 23 4 2 356 1 358 4 319 45 87 84 80 76 67 56
131 138 137 137 135 134 136 133 125 122 121 119 116 115 115 115 117 113 107 100 90 83 71 62 58 41 31 25 24 11 359 8 12 2 354 10 78 88 85 75 66 54 44
127 114 123 128 126 126 122 118 119 124 126 128 129 131 132 134 131 129 129 123 108 74 54 41 33 29 30 33 18 12 6 11 11 6 354 42 76 70 56 47 45 37 28
116 119 118 123 131 122 122 121 120 124 126 130 132 137 144 142 143 146 143 137 138 107 56 27 23 23 41 26 14 10 9 7 9 5 5 12 28 9 0 6 12 15 7
108 125 124 112 107 120 133 134 140 144 141 141 146 155 157 155 158 159 160 155 141 97 47 8 16 64 43 19 1 3 15 4 347 353 9 288 238 346 312 335 339 342 333
18 332 122 124 122 119 132 152 149 152 154 160 167 175 165 160 168 168 183 180 159 91 43 21 88 69 38 14 18 18 4 345 333 328 327 315 290 311 306 292 286 309 307
69 261 37 80 106 137 155 152 168 173 167 168 178 185 143 188 237 193 248 273 147 97 93 37 48 44 42 36 12 2 349 326 321 320 322 332 338 336 322 302 294 284 312
99 55 328 305 235 179 176 185 117 169 113 166 205 197 165 91 24 77 26 52 82 79 48 34 40 39 30 23 356 348 338 341 330 317 327 332 330 327 323 307 301 293 273
106 122 300 255 247 235 194 169 171 166 149 302 14 80 127 173 129 118 98 92 79 48 45 47 42 28 25 353 347 335 348 323 309 313 315 322 323 327 344 337 299 284 294
121 155 201 217 214 212 332 342 126 156 105 130 143 123 112 85 83 81 93 79 68 58 52 52 35 27 5 337 340 337 336 317 324 308 296 318 319 316 344 9 21 7 345
121 147 148 38 31 33 35 38 33 70 87 58 57 60 65 78 81 81 75 80 84 78 63 65 53 21 341 333 337 333 326 320 318 311 301 312 326 352 13 360 351 345 336
96 47 37 51 62 49 46 41 34 31 39 41 33 39 58 66 74 73 79 67 43 81 74 51 25 3 6 335 336 315 311 309 316 319 307 310 310 334 11 3 346 343 336
53 48 24 61 48 31 38 50 57 61 66 45 38 31 23 73 99 105 98 100 139 72 58 62 17 7 353 335 327 314 311 320 322 323 326 310 308 3 351 358 7 359 356
100 74 20 26 50 41 7 6 3 353 58 67 25 1 314 313 84 102 118 124 107 84 50 74 26 98 323 325 318 307 304 325 328 351 348 353 338 331 335 4 17 14 7
56 57 52 27 20 15 351 292 48 9 19 3 335 300 309 270 160 140 164 117 84 69 41 54 32 14 286 301 312 308 289 321 340 356 343 346 355 336 6 13 29 8 23
66 50 40 32 16 25 352 333 5 18 333 345 349 344 313 321 141 187 115 169 71 66 13 245 50 358 316 349 347 339 320 12 4 1 343 343 343 347 11 16 42 21 10
39 35 31 32 24 18 10 328 13 312 2 332 346 345 332 346 283 302 222 213 184 117 36 55 70 19 315 42 23 347 354 337 355 333 3 1 358 343 0 17 20 30 33
21 12 27 19 12 20 20 16 9 328 277 14 336 308 329 304 299 272 216 213 191 147 205 348 206 69 299 346 93 141 2 311 334 323 342 345 346 340 359 5 23 33 30
29 360 3 22 6 360 17 346 2 335 348 330 298 279 298 315 299 290 248 180 210 156 212 237 191 196 136 299 355 74 191 193 307 330 317 333 339 2 2 353 31 30 21
313 59 350 356 241 352 264 283 340 295 290 269 290 323 322 319 315 334 178 186 203 207 199 220 244 220 188 185 155 219 17 288 213 213 291 318 328 323 350 359 20 356 5
252 274 275 277 309 325 314 301 278 279 316 6 337 322 314 317 328 327 297 251 232 212 220 220 229 227 218 193 180 195 171 183 232 201 268 279 255 258 195 355 21 6 2